GFSMA_sfc_temp_021.txt.gz
Temp
61 60 60 59 59 57 56 51 50 48 47 47 48 48 48 48 47 47 46 55 60 64 68 71 70 70 70 70 70 70 70 69 67 66 65 67 66 68 67 66 66 67 67
60 60 58 58 57 57 54 51 49 47 46 45 46 47 47 47 47 47 47 48 59 61 66 70 70 71 71 71 70 71 70 69 66 66 64 65 66 66 66 67 66 65 66
62 60 58 57 57 55 53 52 48 46 45 45 45 45 45 46 46 47 47 47 49 55 61 66 67 70 71 71 70 70 69 67 66 66 64 64 65 66 65 66 65 65 65
61 59 57 56 57 55 53 51 49 45 44 43 42 43 43 44 45 46 46 46 46 48 52 59 62 65 69 70 71 70 70 68 67 67 64 64 64 64 63 64 64 64 64
59 58 57 56 55 53 52 51 48 48 43 42 42 42 41 41 43 46 44 45 45 46 46 52 57 57 60 66 71 70 70 68 67 66 64 63 63 64 63 63 63 63 63
57 56 55 54 53 52 50 49 48 46 45 43 46 44 40 40 40 40 41 45 43 44 44 45 45 47 55 61 67 69 69 68 68 66 64 63 62 63 62 62 62 62 63
56 55 53 53 51 51 49 48 46 47 45 44 42 40 40 40 40 39 39 40 41 43 42 43 43 43 46 57 62 66 69 69 67 66 63 62 61 61 61 61 61 62 62
47 52 51 51 50 49 49 47 47 45 45 44 44 39 38 40 39 40 39 40 39 40 41 42 42 43 43 44 48 59 66 68 69 67 63 61 61 60 60 61 62 62 62
43 44 45 46 46 47 47 47 46 46 44 43 44 45 40 35 34 37 37 37 38 38 38 39 41 42 42 42 48 51 59 63 67 67 64 62 60 60 60 61 61 61 62
41 41 41 42 42 43 45 44 47 45 44 43 42 44 41 41 38 38 37 37 36 39 37 37 39 40 41 40 45 48 51 55 60 64 63 61 60 59 60 60 61 61 61
39 39 39 39 39 39 38 39 41 43 44 42 42 42 40 39 38 38 39 35 36 36 37 38 39 39 40 40 40 43 50 53 57 59 59 59 58 59 59 60 60 60 61
37 37 37 36 37 37 37 37 36 37 38 41 42 41 40 40 39 38 36 36 36 37 35 36 36 40 40 39 42 45 48 52 56 56 56 56 56 57 58 59 60 60 60
33 34 34 34 35 35 35 35 34 34 34 34 35 39 41 41 42 41 40 40 38 34 34 33 35 38 40 37 39 43 45 50 54 55 54 54 55 55 56 57 58 59 59
31 32 32 32 33 33 33 33 31 31 31 31 32 32 34 36 38 40 40 38 36 40 40 36 34 34 36 38 40 43 41 47 51 54 53 53 53 54 54 55 56 57 57
34 31 30 30 31 32 31 30 29 29 29 30 30 31 31 33 34 34 36 39 37 33 35 40 33 36 35 36 39 39 40 43 49 51 52 52 52 52 53 54 54 56 56
29 29 29 29 29 29 29 28 29 29 27 28 31 29 29 30 31 32 32 34 35 36 32 36 40 35 36 38 38 38 38 42 45 49 50 51 51 51 51 52 53 54 55
28 28 28 28 28 27 28 26 26 27 27 28 28 28 29 29 29 29 29 30 32 32 31 36 37 35 34 34 36 36 37 38 40 45 48 50 50 50 50 51 51 52 53
28 28 28 28 27 27 27 25 26 27 26 27 28 28 29 32 28 29 28 29 30 32 32 31 35 36 32 32 34 35 36 37 37 42 46 49 49 49 49 49 49 50 50
26 26 27 25 26 26 26 26 26 27 27 27 28 28 28 28 28 29 27 29 31 34 32 31 32 35 34 30 30 32 33 36 36 40 44 46 48 48 48 48 48 48 48
24 25 25 25 25 26 27 27 28 27 27 28 28 28 28 28 27 28 29 29 30 29 31 31 31 32 33 33 30 32 30 32 33 36 39 42 44 46 47 47 47 46 46
24 24 24 23 24 24 27 26 26 25 24 25 26 27 28 28 31 31 29 28 29 28 28 29 29 31 32 27 30 33 32 35 32 35 33 35 38 40 42 45 44 44 45
21 21 20 20 19 23 26 26 26 23 24 24 23 24 25 25 27 30 31 32 32 28 28 29 29 29 31 33 33 34 33 32 29 33 32 32 36 36 38 40 44 44 44
18 17 17 17 17 17 22 24 24 22 21 20 20 21 22 24 23 23 25 28 28 30 32 30 29 30 31 33 33 32 34 34 34 33 34 32 34 33 37 39 43 44 44
14 14 14 13 14 16 20 21 21 20 18 18 18 19 19 19 20 21 21 20 21 23 25 27 27 29 33 35 35 35 34 34 36 36 35 30 34 32 35 38 42 43 44
10 9 12 11 9 10 16 18 19 16 16 16 18 18 19 18 21 23 21 18 19 21 26 29 30 32 34 35 37 36 32 30 30 31 30 33 35 33 33 34 37 42 43
9 10 9 9 8 7 13 16 18 15 12 14 16 18 20 21 23 24 21 18 15 18 20 20 23 26 29 31 35 35 34 30 31 30 34 30 33 28 25 32 34 35 39

GFSMA_sfc_temp_024.txt.gz
Temp
62 61 61 60 59 58 58 56 52 50 48 48 47 47 47 46 46 46 45 53 59 63 66 70 71 71 71 70 70 70 70 70 68 67 66 66 68 68 67 67 68 68 68
60 59 59 57 58 58 57 55 53 49 47 46 47 46 46 46 46 46 46 46 56 59 63 67 71 71 71 71 71 71 70 70 68 67 65 65 66 67 67 68 66 66 66
60 60 59 58 58 56 55 53 51 50 49 46 45 45 44 45 45 45 45 45 47 54 58 63 65 68 70 71 71 71 71 69 67 66 64 64 65 65 66 66 65 65 65
61 59 58 57 57 55 54 52 50 49 49 48 46 43 42 43 43 44 44 45 45 47 51 57 61 63 65 68 71 71 70 68 67 67 66 64 64 64 64 64 64 64 64
58 58 56 55 55 54 52 51 49 49 48 48 47 46 42 41 42 44 43 44 44 45 44 50 55 56 59 64 67 70 71 70 68 66 66 64 64 64 64 63 63 63 63
54 55 54 53 53 52 50 49 48 46 46 46 48 47 42 41 41 40 41 43 42 43 43 43 43 45 54 59 63 67 71 70 68 67 66 64 63 63 63 62 63 63 62
49 49 51 51 51 50 49 48 46 46 46 45 46 46 46 43 41 40 39 39 40 41 41 42 42 42 44 54 58 62 68 70 68 68 67 66 63 62 63 62 62 62 62
43 45 45 45 46 47 45 44 44 43 44 45 45 42 40 41 41 40 38 39 39 39 40 41 40 41 41 41 46 57 61 65 69 69 68 66 63 63 62 62 62 63 63
41 41 41 41 41 43 42 42 45 43 43 43 45 45 41 39 37 39 39 38 38 37 39 39 40 41 41 40 45 48 55 58 62 65 67 67 64 63 62 62 62 62 63
38 39 39 39 39 39 38 39 41 40 40 38 42 44 42 41 38 34 38 40 38 38 37 37 38 39 40 39 44 47 50 54 56 59 61 63 64 63 62 61 62 62 62
36 36 36 36 36 37 37 37 37 37 38 37 37 40 40 40 39 37 36 35 38 40 38 37 38 37 39 39 38 42 49 52 54 54 57 60 64 62 61 61 61 62 62
34 34 34 33 34 34 34 34 34 35 34 35 35 35 36 38 38 38 37 38 37 39 37 38 36 37 37 37 41 45 48 51 53 54 55 58 60 60 60 61 61 61 62
29 30 31 30 31 31 32 32 31 31 31 31 32 33 34 35 36 35 35 35 34 35 36 35 37 36 39 36 37 42 45 49 52 54 55 57 58 58 58 59 60 60 61
28 29 29 29 29 30 30 29 28 29 29 29 29 29 31 33 33 34 33 31 31 34 38 37 35 36 36 36 37 42 40 46 49 53 54 55 56 56 56 57 58 58 59
32 29 28 28 28 28 28 28 26 27 27 27 27 28 29 30 31 31 31 31 30 29 32 34 34 36 36 35 37 36 36 41 47 50 52 54 54 54 55 55 56 57 58
29 28 28 28 27 27 27 26 26 26 26 26 28 26 27 28 29 28 29 29 29 29 27 34 37 35 37 40 37 36 36 40 43 46 49 51 52 53 53 53 54 55 56
27 27 27 27 27 26 26 24 24 26 25 25 25 26 27 27 27 28 28 28 28 27 26 31 35 37 34 34 38 36 35 36 38 43 45 48 50 51 52 52 53 53 54
27 27 27 26 26 26 25 24 25 24 23 25 26 26 26 29 26 27 27 26 27 28 27 26 31 33 33 35 33 34 37 36 35 40 44 46 48 50 50 50 51 51 51
25 25 25 25 25 25 25 25 25 25 25 25 26 26 26 26 25 26 26 26 27 29 28 27 27 31 33 34 33 32 32 34 35 39 43 44 45 47 49 50 49 49 49
23 23 23 23 23 23 24 25 26 25 24 25 25 25 25 25 25 24 25 25 27 26 27 26 27 28 30 33 28 30 32 29 32 35 38 40 43 44 46 49 48 47 47
22 22 22 21 22 22 26 24 24 23 22 22 23 24 24 25 27 27 26 25 25 24 24 24 25 27 28 28 28 31 30 32 32 33 33 33 35 37 41 45 45 45 46
19 19 18 18 17 21 24 25 25 22 21 21 20 21 21 21 23 25 26 27 27 23 21 21 24 24 26 29 32 30 31 30 28 30 31 33 33 34 37 39 44 46 46
17 16 16 15 15 16 22 24 24 21 20 19 19 19 19 21 20 21 22 24 24 25 26 23 20 21 23 26 28 28 29 30 30 34 29 30 31 31 36 39 43 45 45
13 13 13 12 13 15 20 21 22 20 18 18 18 18 18 18 19 20 20 19 20 22 23 24 22 22 23 25 25 26 27 28 30 32 31 29 30 31 34 36 41 43 44
10 8 12 9 8 9 16 19 20 17 16 16 18 18 18 18 20 23 21 17 18 20 25 27 28 29 30 31 31 26 22 23 23 28 35 31 33 33 30 32 36 42 43
9 10 9 8 8 6 13 17 19 17 13 15 16 18 21 21 24 25 21 19 16 18 20 19 21 23 26 25 28 26 23 19 21 22 33 29 31 29 23 28 34 35 38

GFSMA_sfc_temp_030.txt.gz
Temp
69 71 68 66 66 67 69 64 61 60 63 66 66 66 66 66 67 69 69 57 58 62 65 67 69 71 72 71 71 71 70 70 68 67 66 66 66 67 68 67 68 67 67
65 65 65 66 65 64 63 62 59 58 57 57 65 64 64 65 66 65 68 67 58 59 61 64 66 68 69 71 72 71 71 72 70 68 65 65 65 66 67 67 66 67 66
63 62 60 59 59 60 58 58 57 58 58 62 60 61 64 64 65 65 65 66 66 60 58 61 63 64 65 67 68 69 72 71 70 68 65 65 65 66 65 66 66 65 65
61 59 57 56 57 56 55 54 54 54 55 59 62 61 58 63 63 64 65 65 65 65 63 59 58 60 62 64 66 67 69 70 69 69 67 66 65 65 65 65 65 65 64
57 55 55 55 55 54 54 54 55 53 53 53 52 55 55 56 62 64 63 62 62 62 63 60 56 55 57 61 64 65 67 67 68 68 68 67 65 65 65 65 64 64 64
56 57 55 56 58 58 57 58 57 57 58 58 57 57 62 62 63 63 62 62 61 60 61 60 60 61 56 58 61 63 65 66 66 67 68 67 66 66 65 64 64 64 63
57 58 57 58 58 56 56 57 59 58 57 58 60 62 63 61 61 62 61 61 59 60 60 60 59 59 60 58 59 60 62 64 66 65 66 67 67 66 65 64 64 64 64
53 54 54 53 55 55 54 54 54 56 55 56 53 56 55 60 59 60 60 58 58 59 59 59 59 59 58 59 58 57 59 61 63 64 64 65 65 66 66 65 65 65 65
51 50 51 51 51 52 50 51 52 52 51 53 53 53 51 49 51 58 56 58 56 57 58 58 58 58 58 58 58 58 57 56 58 60 61 63 64 65 65 66 65 65 64
48 49 49 49 49 49 48 48 50 50 50 47 52 52 53 50 47 46 54 54 54 53 54 56 57 57 57 57 55 52 51 52 53 55 57 59 61 63 64 65 65 65 64
46 46 47 47 47 47 46 46 47 47 48 47 46 47 49 51 51 46 43 47 50 52 53 53 54 55 56 56 56 53 49 50 51 52 54 55 57 59 61 63 65 65 64
45 44 44 44 44 44 44 44 44 43 44 45 46 46 44 44 44 43 42 43 44 48 49 51 52 54 55 54 52 47 48 49 51 51 52 53 54 56 58 61 63 65 64
43 42 43 42 42 41 41 42 41 41 41 41 41 42 44 43 43 43 42 41 40 44 46 51 51 51 52 54 53 44 47 50 50 50 51 51 53 54 56 58 60 62 65
42 42 42 41 41 40 41 41 40 39 39 39 39 39 40 41 41 41 39 37 35 40 44 45 51 50 51 51 47 45 49 48 49 49 50 50 51 52 54 55 57 60 62
41 41 41 41 41 40 40 40 39 37 38 37 38 38 37 38 39 39 39 38 35 31 35 42 42 48 48 46 46 46 47 46 46 47 48 49 50 50 52 53 55 58 61
41 40 40 40 40 39 39 39 38 38 37 38 38 37 37 38 37 38 37 37 37 34 30 39 41 42 43 43 43 43 44 42 44 45 46 46 48 49 50 51 53 55 57
40 39 38 38 37 37 37 37 36 36 34 34 36 35 35 36 36 37 36 36 35 35 30 35 38 40 39 39 40 41 42 43 45 44 45 45 46 47 48 49 50 51 53
38 37 36 36 35 35 34 34 33 33 32 32 33 33 33 34 32 34 34 33 33 34 31 28 33 34 35 37 38 38 40 42 42 43 43 44 45 45 46 47 48 49 50
37 35 34 33 33 32 32 32 32 32 32 32 31 31 31 31 29 30 31 30 31 31 30 29 28 32 33 35 35 36 37 38 41 41 42 43 43 44 45 46 47 47 47
34 33 32 32 31 31 31 32 31 31 31 31 31 30 30 29 28 28 27 27 28 27 27 27 28 28 29 32 32 32 33 36 36 40 41 41 42 42 43 43 44 44 45
33 32 30 29 29 29 31 30 30 30 29 29 29 29 29 28 26 26 26 26 25 24 23 23 23 25 26 27 26 29 28 30 32 35 35 39 42 43 44 44 43 42 43
28 27 26 25 25 28 25 26 28 28 27 27 26 27 28 26 27 26 26 26 26 22 20 21 22 21 23 26 27 27 26 25 23 33 31 30 35 35 37 42 43 43 43
27 25 25 24 23 24 23 25 26 26 26 26 25 24 25 26 25 25 25 25 25 26 27 25 21 22 23 26 27 25 25 25 25 29 29 26 32 32 37 40 40 42 43
24 24 23 22 22 23 22 23 24 25 25 25 24 24 23 24 25 24 24 23 24 25 25 27 26 27 27 28 27 27 25 25 26 28 30 22 30 30 34 36 37 39 40
22 21 20 19 17 19 19 22 23 23 23 22 24 24 24 23 24 26 25 23 24 25 29 30 31 31 32 32 31 28 24 23 22 25 30 27 28 28 30 31 34 36 39
20 20 19 18 16 14 18 20 22 23 21 22 23 25 25 26 27 28 25 24 21 24 25 25 26 27 28 28 29 29 27 21 21 21 28 25 26 27 22 29 33 34 34

GFSMA_sfc_temp_033.txt.gz
Temp
72 71 68 69 66 67 68 67 66 64 62 64 67 67 67 67 67 68 67 58 60 63 66 68 68 70 71 72 71 72 72 70 69 68 67 66 66 66 67 68 68 68 67
64 64 63 62 62 63 64 62 60 61 60 60 64 65 66 67 67 67 67 66 60 61 62 65 66 67 68 68 69 70 71 72 71 69 66 65 66 66 66 67 67 67 66
63 61 59 57 57 58 58 57 57 58 61 62 61 64 64 66 66 66 66 66 66 61 61 62 62 63 64 66 68 68 69 70 70 68 67 66 66 65 66 66 66 67 65
60 60 58 56 56 55 55 54 54 53 54 53 55 58 58 58 64 65 65 64 64 63 63 61 60 60 62 64 65 66 67 68 68 69 68 67 65 65 65 65 66 66 65
57 57 56 55 55 55 55 56 58 57 57 60 60 61 60 58 62 65 63 62 61 61 60 60 59 58 60 61 63 65 66 66 67 67 67 67 66 66 65 65 65 65 64
61 61 61 60 61 60 60 61 60 61 59 58 61 63 64 64 63 61 62 62 60 60 60 59 58 58 59 61 62 63 64 65 66 66 66 65 67 67 67 65 65 65 65
59 59 59 59 59 57 57 58 60 58 56 57 59 59 63 62 61 61 60 59 58 59 59 59 58 57 58 60 61 61 62 63 64 64 64 65 65 65 67 65 65 65 65
55 56 55 55 56 54 53 54 54 56 55 55 51 55 54 57 57 59 59 58 56 55 56 56 56 56 56 56 56 59 60 59 60 61 62 63 64 64 65 65 66 66 65
53 52 53 52 52 53 50 50 51 51 50 52 52 51 47 46 49 56 55 55 53 52 53 54 54 54 54 54 55 55 55 55 56 57 58 59 60 62 64 65 66 66 66
51 51 51 51 50 50 49 49 51 49 49 46 51 52 51 50 44 43 51 52 51 51 50 51 51 53 54 53 53 51 50 52 53 54 55 56 58 59 61 62 64 65 66
48 48 48 48 47 48 47 47 46 47 48 46 45 46 47 49 49 44 40 42 47 49 50 49 49 51 53 52 51 50 50 51 52 52 53 54 55 56 58 60 61 63 65
47 46 46 46 46 45 45 45 45 43 44 44 45 44 43 42 41 41 39 39 40 44 46 48 49 50 50 50 51 47 48 49 51 52 52 52 53 54 56 57 59 60 62
44 44 45 44 44 44 44 44 42 41 41 41 41 41 42 42 42 40 38 37 35 39 42 46 47 47 50 48 49 44 45 48 49 49 50 50 52 53 54 55 56 58 59
44 44 44 44 43 43 43 43 41 39 39 39 39 39 38 40 40 39 37 34 31 36 38 39 45 45 45 46 44 44 44 45 46 47 48 48 49 51 52 53 54 55 56
43 43 43 43 43 42 41 42 39 38 39 39 39 38 38 39 39 39 38 37 33 28 30 37 38 42 42 42 42 42 41 43 44 45 46 47 48 48 49 51 52 53 54
42 42 42 42 41 41 40 40 38 38 37 37 38 36 36 37 37 37 37 37 36 32 27 36 36 38 39 41 40 39 40 40 41 43 44 45 46 46 47 48 50 51 53
42 41 40 40 39 38 37 37 37 36 34 35 36 35 34 35 35 35 35 35 34 33 28 31 35 36 35 35 36 37 37 37 38 41 42 43 44 45 45 46 47 48 50
41 39 39 38 37 37 36 35 34 34 33 33 33 33 33 35 32 33 33 32 31 32 29 26 30 30 31 32 33 33 36 39 37 39 41 43 43 44 44 45 45 46 47
39 37 37 36 35 35 34 34 34 33 33 32 32 32 31 31 29 30 30 29 29 30 28 26 25 29 30 31 30 31 32 33 37 38 38 39 40 40 42 43 44 44 44
37 36 35 34 34 33 33 33 33 32 32 32 32 32 31 30 28 28 27 26 27 26 25 24 24 24 26 28 29 27 26 30 29 34 35 35 37 39 39 40 41 43 43
36 35 34 32 32 31 32 33 32 31 30 30 31 31 30 30 28 28 26 25 24 22 22 21 21 22 23 23 23 26 25 26 27 29 29 30 31 31 33 36 37 39 41
31 30 29 29 28 31 31 28 28 28 29 28 28 29 29 28 28 29 28 28 27 22 19 19 20 20 22 23 25 24 24 22 20 30 27 26 30 29 31 32 36 38 39
30 29 28 28 27 28 29 27 28 27 27 27 27 27 27 28 27 26 27 28 27 28 29 26 22 22 22 25 25 24 24 23 22 27 27 23 28 26 30 35 36 37 37
28 27 27 26 26 26 28 27 26 25 26 27 26 26 25 25 26 25 25 24 25 26 26 27 26 26 26 27 26 25 24 23 25 26 27 20 27 26 29 30 35 35 35
26 25 25 22 21 22 26 25 25 24 24 24 26 26 25 25 26 28 26 22 23 24 29 30 30 31 31 32 31 27 22 20 19 22 28 24 25 25 27 27 30 34 36
25 25 23 22 20 18 22 24 24 23 21 23 24 26 27 28 29 29 26 23 20 21 23 23 23 25 27 27 30 27 24 19 19 19 26 23 22 23 18 25 27 28 29